This is the latest recevied weather packets stored in our database for station/object W4OTS. If no packets are shown the sender has not sent any weather packets the latest 10 day(s).
| Time | Temp. | Humidity | Pressure | Rain* | Wind** | Luminosity | Snow |
|---|---|---|---|---|---|---|---|
| 1778047013 | 17.78° C | 76% | 1015.9 hPa | 0 mm | - | 0 W/m² | - |
| 1778046709 | 17.78° C | 76% | 1015.8 hPa | 0 mm | - | 0 W/m² | - |
| 1778046407 | 17.78° C | 75% | 1016.2 hPa | 0 mm | - | 0 W/m² | - |
| 1778046102 | 17.78° C | 75% | 1016.1 hPa | 0 mm | - | 0 W/m² | - |
| 1778045800 | 17.78° C | 75% | 1016.2 hPa | 0 mm | - | 0 W/m² | - |
| 1778045499 | 17.22° C | 75% | 1016.1 hPa | 0 mm | - | 0 W/m² | - |
| 1778045196 | 16.67° C | 75% | 1016.1 hPa | 0 mm | - | 0 W/m² | - |
| 1778044894 | 16.67° C | 74% | 1016.1 hPa | 0 mm | - | 0 W/m² | - |
| 1778044591 | 16.67° C | 72% | 1016.1 hPa | 0 mm | - | 0 W/m² | - |
| 1778044287 | 17.22° C | 72% | 1015.9 hPa | 0 mm | - | 0 W/m² | - |
| 1778043986 | 17.22° C | 70% | 1015.8 hPa | 0 mm | - | 0 W/m² | - |
| 1778043682 | 17.22° C | 69% | 1015.6 hPa | 0 mm | - | 0 W/m² | - |
| 1778043379 | 17.22° C | 70% | 1015.6 hPa | 0 mm | - | 0 W/m² | - |
| 1778043076 | 17.22° C | 70% | 1015.9 hPa | 0 mm | - | 0 W/m² | - |
| 1778042774 | 16.67° C | 70% | 1016 hPa | 0 mm | - | 0 W/m² | - |
| 1778042470 | 16.67° C | 71% | 1015.7 hPa | 0 mm | - | 0 W/m² | - |
| 1778042167 | 17.22° C | 70% | 1015.6 hPa | 0 mm | - | 0 W/m² | - |
| 1778041866 | 17.22° C | 68% | 1015.7 hPa | 0 mm | - | 0 W/m² | - |
| 1778041564 | 16.67° C | 70% | 1015.9 hPa | 0 mm | - | 0 W/m² | - |
| 1778041262 | 16.67° C | 73% | 1015.7 hPa | 0 mm | - | 0 W/m² | - |
| 1778040961 | 16.67° C | 72% | 1015.6 hPa | 0 mm | - | 0 W/m² | - |
| 1778040657 | 16.67° C | 71% | 1016 hPa | 0 mm | - | 0 W/m² | - |
| 1778040355 | 16.67° C | 71% | 1015.8 hPa | 0 mm | - | 0 W/m² | - |
| 1778040050 | 16.67° C | 70% | 1016.1 hPa | 0 mm | - | 0 W/m² | - |
| 1778039747 | 16.67° C | 70% | 1015.8 hPa | 0 mm | - | 0 W/m² | - |
* Rain latest hour (hover to see other rain measurements)
** Current wind speed in m/s (hover to see current wind gust speed)